User: anonymous   Login
Location: Kawakawa
(35.3830°S, 174.0670°E)
Time: 01:38:07
(UTC+13:00)
Language:

Cosmos 1741 Rocket - Orbit

View from above orbital plane
View from above orbital plane
View from above satellite
View from above satellite

Ground track
Ground track

The orbit data is extracted from the following two-line orbital elements,

1 16682U 86030B   19291.93198448 -.00000101 +00000-0 -25819-4 0  9991
2 16682 074.0233 098.3703 0015458 229.8585 221.3518 14.35891460753442
Epoch (UTC): 18 October 2019 22:22:03
Eccentricity: 0.0015458
inclination: 74.0233°
perigee height: 761 km
apogee height: 783 km
right ascension of ascending node: 98.3703°
argument of perigee: 229.8585°
revolutions per day: 14.35891460
mean anomaly at epoch: 221.3518°
orbit number at epoch: 75344

The dashed part of the orbit path shows where the satellite is in the earth's shadow,  

DLR